Time,TemperatureF,DewpointF,PressureIn,WindDirection,WindDirectionDegrees,WindSpeedMPH,WindSpeedGustMPH,Humidity,HourlyPrecipIn,Conditions,Clouds,dailyrainin,SoftwareType,DateUTC
2013-02-01 00:00:00,9.2,-1.5,30.46,WNW,287,9.0,14.0,61,0.00,,,0.00,VWS V14.01,2013-02-01 06:00:00,
2013-02-01 00:03:00,9.1,-1.3,30.46,West,271,1.0,6.0,62,0.00,,,0.00,VWS V14.01,2013-02-01 06:03:00,
2013-02-01 00:08:00,9.1,-1.3,30.46,West,280,9.0,14.0,62,0.00,,,0.00,VWS V14.01,2013-02-01 06:08:00,
2013-02-01 00:13:00,9.1,-1.3,30.46,WNW,291,12.0,14.0,62,0.00,,,0.00,VWS V14.01,2013-02-01 06:13:00,
2013-02-01 00:18:00,9.1,-1.3,30.47,WNW,295,13.0,15.0,62,0.00,,,0.00,VWS V14.01,2013-02-01 06:18:00,
2013-02-01 00:23:00,9.1,-1.3,30.47,West,270,2.0,18.0,62,0.00,,,0.00,VWS V14.01,2013-02-01 06:23:00,
2013-02-01 00:28:00,9.0,-1.4,30.47,West,267,3.0,18.0,62,0.00,,,0.00,VWS V14.01,2013-02-01 06:28:00,
2013-02-01 00:30:00,9.0,-1.4,30.47,NW,312,9.0,18.0,62,0.00,,,0.00,VWS V14.01,2013-02-01 06:30:00,
2013-02-01 00:33:00,8.9,-1.5,30.47,WNW,289,2.0,11.0,62,0.00,,,0.00,VWS V14.01,2013-02-01 06:33:00,
2013-02-01 00:38:00,8.9,-1.5,30.47,West,275,2.0,12.0,62,0.00,,,0.00,VWS V14.01,2013-02-01 06:38:00,
2013-02-01 00:43:00,8.9,-1.8,30.47,WSW,252,7.0,15.0,61,0.00,,,0.00,VWS V14.01,2013-02-01 06:43:00,
2013-02-01 00:48:00,8.9,-1.8,30.47,SW,229,12.0,18.0,61,0.00,,,0.00,VWS V14.01,2013-02-01 06:48:00,
2013-02-01 00:53:00,8.8,-1.9,30.47,WNW,295,6.0,18.0,61,0.00,,,0.00,VWS V14.01,2013-02-01 06:53:00,
2013-02-01 00:58:00,8.8,-1.9,30.46,West,275,7.0,18.0,61,0.00,,,0.00,VWS V14.01,2013-02-01 06:58:00,
2013-02-01 01:00:00,8.8,-1.9,30.47,NW,304,4.0,18.0,61,0.00,,,0.00,VWS V14.01,2013-02-01 07:00:00,
2013-02-01 01:03:00,8.7,-2.0,30.47,NW,315,5.0,8.0,61,0.00,,,0.00,VWS V14.01,2013-02-01 07:03:00,
2013-02-01 01:08:00,8.7,-1.6,30.47,West,263,4.0,8.0,62,0.00,,,0.00,VWS V14.01,2013-02-01 07:08:00,
2013-02-01 01:13:00,8.6,-1.7,30.48,WNW,298,6.0,12.0,62,0.00,,,0.00,VWS V14.01,2013-02-01 07:13:00,
2013-02-01 01:18:00,8.6,-1.7,30.47,NW,315,8.0,13.0,62,0.00,,,0.00,VWS V14.01,2013-02-01 07:18:00,
2013-02-01 01:23:00,8.6,-2.1,30.47,WNW,282,5.0,14.0,61,0.00,,,0.00,VWS V14.01,2013-02-01 07:23:00,
2013-02-01 01:28:00,8.6,-1.7,30.47,West,275,13.0,14.0,62,0.00,,,0.00,VWS V14.01,2013-02-01 07:28:00,
2013-02-01 01:30:00,8.6,-1.7,30.47,West,278,5.0,14.0,62,0.00,,,0.00,VWS V14.01,2013-02-01 07:30:00,
2013-02-01 01:33:00,8.6,-1.7,30.48,WSW,254,8.0,10.0,62,0.00,,,0.00,VWS V14.01,2013-02-01 07:33:00,
2013-02-01 01:38:00,8.6,-1.4,30.47,WNW,290,7.0,10.0,63,0.00,,,0.00,VWS V14.01,2013-02-01 07:38:00,
2013-02-01 01:43:00,8.5,-1.5,30.47,NW,304,2.0,10.0,63,0.00,,,0.00,VWS V14.01,2013-02-01 07:43:00,
2013-02-01 01:48:00,8.5,-1.5,30.47,WNW,288,6.0,14.0,63,0.00,,,0.00,VWS V14.01,2013-02-01 07:48:00,
2013-02-01 01:53:00,8.5,-1.5,30.47,WSW,257,2.0,14.0,63,0.00,,,0.00,VWS V14.01,2013-02-01 07:53:00,
2013-02-01 01:58:00,8.4,-1.6,30.47,WSW,258,6.0,14.0,63,0.00,,,0.00,VWS V14.01,2013-02-01 07:58:00,
2013-02-01 02:00:00,8.4,-1.6,30.47,WNW,284,7.0,14.0,63,0.00,,,0.00,VWS V14.01,2013-02-01 08:00:00,
2013-02-01 02:03:00,8.4,-1.3,30.47,West,261,3.0,7.0,64,0.00,,,0.00,VWS V14.01,2013-02-01 08:03:00,
2013-02-01 02:08:00,8.3,-1.4,30.47,West,268,1.0,8.0,64,0.00,,,0.00,VWS V14.01,2013-02-01 08:08:00,
2013-02-01 02:13:00,8.3,-1.7,30.47,WSW,241,5.0,8.0,63,0.00,,,0.00,VWS V14.01,2013-02-01 08:13:00,
2013-02-01 02:19:00,8.3,-1.7,30.47,WSW,257,8.0,18.0,63,0.00,,,0.00,VWS V14.01,2013-02-01 08:19:00,
2013-02-01 02:24:00,8.3,-1.7,30.47,West,273,5.0,18.0,63,0.00,,,0.00,VWS V14.01,2013-02-01 08:24:00,
2013-02-01 02:29:00,8.3,-1.7,30.47,WSW,256,4.0,18.0,63,0.00,,,0.00,VWS V14.01,2013-02-01 08:29:00,
2013-02-01 02:30:00,8.3,-1.7,30.48,West,270,2.0,18.0,63,0.00,,,0.00,VWS V14.01,2013-02-01 08:30:00,
2013-02-01 02:34:00,8.2,-1.8,30.48,WSW,247,2.0,7.0,63,0.00,,,0.00,VWS V14.01,2013-02-01 08:34:00,
2013-02-01 02:39:00,8.2,-1.8,30.48,WNW,288,2.0,9.0,63,0.00,,,0.00,VWS V14.01,2013-02-01 08:39:00,
2013-02-01 02:44:00,8.1,-1.9,30.47,West,275,4.0,11.0,63,0.00,,,0.00,VWS V14.01,2013-02-01 08:44:00,
2013-02-01 02:49:00,8.1,-1.9,30.47,NW,314,2.0,11.0,63,0.00,,,0.00,VWS V14.01,2013-02-01 08:49:00,
2013-02-01 02:54:00,8.1,-1.5,30.47,West,273,4.0,11.0,64,0.00,,,0.00,VWS V14.01,2013-02-01 08:54:00,
2013-02-01 02:59:00,8.1,-1.5,30.48,West,279,2.0,11.0,64,0.00,,,0.00,VWS V14.01,2013-02-01 08:59:00,
2013-02-01 03:00:00,8.1,-1.5,30.47,West,274,4.0,11.0,64,0.00,,,0.00,VWS V14.01,2013-02-01 09:00:00,
2013-02-01 03:04:00,8.1,-1.5,30.47,West,271,6.0,13.0,64,0.00,,,0.00,VWS V14.01,2013-02-01 09:04:00,
2013-02-01 03:09:00,8.0,-2.0,30.47,WNW,283,11.0,13.0,63,0.00,,,0.00,VWS V14.01,2013-02-01 09:09:00,
2013-02-01 03:14:00,8.0,-1.6,30.47,WNW,285,5.0,13.0,64,0.00,,,0.00,VWS V14.01,2013-02-01 09:14:00,
2013-02-01 03:19:00,8.0,-2.0,30.47,West,273,2.0,13.0,63,0.00,,,0.00,VWS V14.01,2013-02-01 09:19:00,
2013-02-01 03:24:00,7.9,-2.1,30.47,WSW,256,4.0,13.0,63,0.00,,,0.00,VWS V14.01,2013-02-01 09:24:00,
2013-02-01 03:29:00,7.9,-2.1,30.47,SW,234,8.0,13.0,63,0.00,,,0.00,VWS V14.01,2013-02-01 09:29:00,
2013-02-01 03:30:00,7.9,-2.1,30.47,WSW,248,5.0,13.0,63,0.00,,,0.00,VWS V14.01,2013-02-01 09:30:00,
2013-02-01 03:34:00,7.9,-2.1,30.47,WSW,250,3.0,10.0,63,0.00,,,0.00,VWS V14.01,2013-02-01 09:34:00,
2013-02-01 03:39:00,7.9,-2.1,30.47,West,265,2.0,10.0,63,0.00,,,0.00,VWS V14.01,2013-02-01 09:39:00,
2013-02-01 03:44:00,7.8,-2.2,30.47,West,262,1.0,10.0,63,0.00,,,0.00,VWS V14.01,2013-02-01 09:44:00,
2013-02-01 03:49:00,7.8,-2.2,30.47,West,265,0.0,10.0,63,0.00,,,0.00,VWS V14.01,2013-02-01 09:49:00,
2013-02-01 03:54:00,7.7,-2.3,30.47,West,265,3.0,10.0,63,0.00,,,0.00,VWS V14.01,2013-02-01 09:54:00,
2013-02-01 03:59:00,7.7,-2.3,30.47,WSW,248,0.0,10.0,63,0.00,,,0.00,VWS V14.01,2013-02-01 09:59:00,
2013-02-01 04:00:00,7.7,-2.3,30.47,WSW,248,0.0,10.0,63,0.00,,,0.00,VWS V14.01,2013-02-01 10:00:00,
2013-02-01 04:04:00,7.6,-2.0,30.47,West,268,2.0,5.0,64,0.00,,,0.00,VWS V14.01,2013-02-01 10:04:00,
2013-02-01 04:09:00,7.6,-2.0,30.47,West,265,2.0,5.0,64,0.00,,,0.00,VWS V14.01,2013-02-01 10:09:00,
2013-02-01 04:14:00,7.6,-2.0,30.47,West,265,1.0,5.0,64,0.00,,,0.00,VWS V14.01,2013-02-01 10:14:00,
2013-02-01 04:19:00,7.5,-2.1,30.47,WSW,257,1.0,6.0,64,0.00,,,0.00,VWS V14.01,2013-02-01 10:19:00,
2013-02-01 04:24:00,7.5,-1.8,30.47,West,259,3.0,6.0,65,0.00,,,0.00,VWS V14.01,2013-02-01 10:24:00,
2013-02-01 04:29:00,7.5,-1.8,30.47,West,259,0.0,6.0,65,0.00,,,0.00,VWS V14.01,2013-02-01 10:29:00,
2013-02-01 04:30:00,7.5,-1.8,30.47,West,259,1.0,6.0,65,0.00,,,0.00,VWS V14.01,2013-02-01 10:30:00,
2013-02-01 04:34:00,7.5,-1.8,30.47,West,271,0.0,4.0,65,0.00,,,0.00,VWS V14.01,2013-02-01 10:34:00,
2013-02-01 04:39:00,7.4,-1.9,30.47,West,269,0.0,4.0,65,0.00,,,0.00,VWS V14.01,2013-02-01 10:39:00,
2013-02-01 04:44:00,7.3,-2.0,30.47,WNW,292,0.0,6.0,65,0.00,,,0.00,VWS V14.01,2013-02-01 10:44:00,
2013-02-01 04:49:00,7.3,-1.7,30.47,West,279,5.0,6.0,66,0.00,,,0.00,VWS V14.01,2013-02-01 10:49:00,
2013-02-01 04:54:00,7.3,-2.0,30.48,West,271,0.0,6.0,65,0.00,,,0.00,VWS V14.01,2013-02-01 10:54:00,
2013-02-01 04:59:00,7.3,-2.0,30.48,West,270,1.0,6.0,65,0.00,,,0.00,VWS V14.01,2013-02-01 10:59:00,
2013-02-01 05:00:00,7.3,-2.0,30.48,West,270,1.0,6.0,65,0.00,,,0.00,VWS V14.01,2013-02-01 11:00:00,
2013-02-01 05:04:00,7.3,-2.0,30.48,WNW,288,4.0,6.0,65,0.00,,,0.00,VWS V14.01,2013-02-01 11:04:00,
2013-02-01 05:09:00,7.3,-2.0,30.48,West,279,1.0,6.0,65,0.00,,,0.00,VWS V14.01,2013-02-01 11:09:00,
2013-02-01 05:14:00,7.2,-2.1,30.48,WSW,248,4.0,6.0,65,0.00,,,0.00,VWS V14.01,2013-02-01 11:14:00,
2013-02-01 05:19:00,7.2,-2.1,30.48,WSW,254,0.0,6.0,65,0.00,,,0.00,VWS V14.01,2013-02-01 11:19:00,
2013-02-01 05:24:00,7.2,-2.4,30.48,West,267,1.0,6.0,64,0.00,,,0.00,VWS V14.01,2013-02-01 11:24:00,
2013-02-01 05:29:00,7.2,-2.1,30.49,West,265,2.0,6.0,65,0.00,,,0.00,VWS V14.01,2013-02-01 11:29:00,
2013-02-01 05:30:00,7.2,-2.1,30.49,West,263,1.0,6.0,65,0.00,,,0.00,VWS V14.01,2013-02-01 11:30:00,
2013-02-01 05:34:00,7.2,-2.1,30.48,West,265,1.0,11.0,65,0.00,,,0.00,VWS V14.01,2013-02-01 11:34:00,
2013-02-01 05:39:00,7.1,-2.2,30.49,WNW,298,1.0,11.0,65,0.00,,,0.00,VWS V14.01,2013-02-01 11:39:00,
2013-02-01 05:44:00,7.2,-2.1,30.49,WSW,247,2.0,11.0,65,0.00,,,0.00,VWS V14.01,2013-02-01 11:44:00,
2013-02-01 05:49:00,7.1,-1.9,30.49,WSW,257,2.0,11.0,66,0.00,,,0.00,VWS V14.01,2013-02-01 11:49:00,
2013-02-01 05:54:00,7.1,-2.2,30.49,WSW,258,0.0,11.0,65,0.00,,,0.00,VWS V14.01,2013-02-01 11:54:00,
2013-02-01 05:59:00,7.1,-1.9,30.49,West,265,0.0,11.0,66,0.00,,,0.00,VWS V14.01,2013-02-01 11:59:00,
2013-02-01 06:00:00,7.1,-1.9,30.49,West,265,0.0,11.0,66,0.00,,,0.00,VWS V14.01,2013-02-01 12:00:00,
2013-02-01 06:04:00,7.0,-2.0,30.49,West,265,0.0,0.0,66,0.00,,,0.00,VWS V14.01,2013-02-01 12:04:00,
2013-02-01 06:09:00,6.9,-2.0,30.49,West,277,0.0,6.0,66,0.00,,,0.00,VWS V14.01,2013-02-01 12:09:00,
2013-02-01 06:14:00,6.9,-2.0,30.49,WNW,282,0.0,6.0,66,0.00,,,0.00,VWS V14.01,2013-02-01 12:14:00,
2013-02-01 06:19:00,6.8,-1.8,30.49,WNW,282,0.0,6.0,67,0.00,,,0.00,VWS V14.01,2013-02-01 12:19:00,
2013-02-01 06:24:00,6.8,-1.8,30.49,WNW,282,1.0,6.0,67,0.00,,,0.00,VWS V14.01,2013-02-01 12:24:00,
2013-02-01 06:29:00,6.8,-1.8,30.50,West,265,0.0,7.0,67,0.00,,,0.00,VWS V14.01,2013-02-01 12:29:00,
2013-02-01 06:30:00,6.8,-1.8,30.50,West,265,2.0,7.0,67,0.00,,,0.00,VWS V14.01,2013-02-01 12:30:00,
2013-02-01 06:34:00,6.8,-1.8,30.49,West,265,0.0,2.0,67,0.00,,,0.00,VWS V14.01,2013-02-01 12:34:00,
2013-02-01 06:40:00,6.7,-1.9,30.49,West,265,0.0,2.0,67,0.00,,,0.00,VWS V14.01,2013-02-01 12:40:00,
2013-02-01 06:45:00,6.7,-1.6,30.50,West,265,0.0,2.0,68,0.00,,,0.00,VWS V14.01,2013-02-01 12:45:00,
2013-02-01 06:50:00,6.6,-1.7,30.50,West,265,0.0,2.0,68,0.00,,,0.00,VWS V14.01,2013-02-01 12:50:00,
2013-02-01 06:55:00,6.6,-1.7,30.50,West,265,1.0,2.0,68,0.00,,,0.00,VWS V14.01,2013-02-01 12:55:00,
2013-02-01 07:00:00,6.5,-1.8,30.50,West,265,0.0,2.0,68,0.00,,,0.00,VWS V14.01,2013-02-01 13:00:00,
2013-02-01 07:05:00,6.5,-1.8,30.50,West,265,0.0,1.0,68,0.00,,,0.00,VWS V14.01,2013-02-01 13:05:00,
2013-02-01 07:10:00,6.4,-1.6,30.50,West,265,0.0,1.0,69,0.00,,,0.00,VWS V14.01,2013-02-01 13:10:00,
2013-02-01 07:15:00,6.3,-1.7,30.50,West,265,0.0,1.0,69,0.00,,,0.00,VWS V14.01,2013-02-01 13:15:00,
2013-02-01 07:20:00,6.3,-1.7,30.50,West,265,0.0,1.0,69,0.00,,,0.00,VWS V14.01,2013-02-01 13:20:00,
2013-02-01 07:25:00,6.3,-1.7,30.50,West,265,0.0,1.0,69,0.00,,,0.00,VWS V14.01,2013-02-01 13:25:00,
2013-02-01 07:30:00,6.2,-1.8,30.50,West,265,0.0,1.0,69,0.00,,,0.00,VWS V14.01,2013-02-01 13:30:00,
2013-02-01 07:35:00,6.2,-1.5,30.50,West,265,0.0,1.0,70,0.00,,,0.00,VWS V14.01,2013-02-01 13:35:00,
2013-02-01 07:40:00,6.3,-1.7,30.50,West,265,0.0,1.0,69,0.00,,,0.00,VWS V14.01,2013-02-01 13:40:00,
2013-02-01 07:45:00,6.3,-1.4,30.50,West,265,0.0,1.0,70,0.00,,,0.00,VWS V14.01,2013-02-01 13:45:00,
2013-02-01 07:50:00,6.4,-1.6,30.51,West,265,0.0,3.0,69,0.00,,,0.00,VWS V14.01,2013-02-01 13:50:00,
2013-02-01 07:55:00,6.6,-1.4,30.50,West,265,0.0,3.0,69,0.00,,,0.00,VWS V14.01,2013-02-01 13:55:00,
2013-02-01 08:00:00,6.7,-1.3,30.51,West,265,1.0,3.0,69,0.00,,,0.00,VWS V14.01,2013-02-01 14:00:00,
2013-02-01 08:05:00,7.0,-1.0,30.52,West,279,1.0,6.0,69,0.00,,,0.00,VWS V14.01,2013-02-01 14:05:00,
2013-02-01 08:10:00,7.2,-0.8,30.52,West,259,2.0,6.0,69,0.00,,,0.00,VWS V14.01,2013-02-01 14:10:00,
2013-02-01 08:15:00,7.5,-0.8,30.52,West,279,2.0,6.0,68,0.00,,,0.00,VWS V14.01,2013-02-01 14:15:00,
2013-02-01 08:20:00,7.8,-0.9,30.52,West,275,7.0,7.0,67,0.00,,,0.00,VWS V14.01,2013-02-01 14:20:00,
2013-02-01 08:25:00,7.8,-1.2,30.52,West,269,4.0,8.0,66,0.00,,,0.00,VWS V14.01,2013-02-01 14:25:00,
2013-02-01 08:30:00,7.8,-1.2,30.52,WSW,257,5.0,6.0,66,0.00,,,0.00,VWS V14.01,2013-02-01 14:30:00,
2013-02-01 08:35:00,7.9,-1.1,30.52,WSW,254,6.0,6.0,66,0.00,,,0.00,VWS V14.01,2013-02-01 14:35:00,
2013-02-01 08:40:00,8.2,-0.8,30.52,NW,310,0.0,6.0,66,0.00,,,0.00,VWS V14.01,2013-02-01 14:40:00,
2013-02-01 08:45:00,8.7,-0.3,30.53,NW,309,0.0,6.0,66,0.00,,,0.00,VWS V14.01,2013-02-01 14:45:00,
2013-02-01 08:50:00,8.8,-0.6,30.53,NW,307,5.0,7.0,65,0.00,,,0.00,VWS V14.01,2013-02-01 14:50:00,
2013-02-01 08:55:00,9.1,-0.6,30.53,WNW,291,2.0,7.0,64,0.00,,,0.00,VWS V14.01,2013-02-01 14:55:00,
2013-02-01 09:00:00,9.0,-1.0,30.54,West,277,5.0,7.0,63,0.00,,,0.00,VWS V14.01,2013-02-01 15:00:00,
2013-02-01 09:05:00,9.0,-0.7,30.54,WNW,300,2.0,7.0,64,0.00,,,0.00,VWS V14.01,2013-02-01 15:05:00,
2013-02-01 09:10:00,9.1,-0.6,30.54,WSW,254,2.0,7.0,64,0.00,,,0.00,VWS V14.01,2013-02-01 15:10:00,
2013-02-01 09:15:00,9.3,-0.7,30.54,NW,321,4.0,7.0,63,0.00,,,0.00,VWS V14.01,2013-02-01 15:15:00,
2013-02-01 09:20:00,9.6,-0.4,30.53,WNW,300,0.0,8.0,63,0.00,,,0.00,VWS V14.01,2013-02-01 15:20:00,
2013-02-01 09:25:00,9.9,0.2,30.53,WSW,244,1.0,8.0,64,0.00,,,0.00,VWS V14.01,2013-02-01 15:25:00,
2013-02-01 09:30:00,10.0,-0.1,30.54,SW,236,0.0,3.0,63,0.00,,,0.00,VWS V14.01,2013-02-01 15:30:00,
2013-02-01 09:35:00,10.1,0.0,30.53,WSW,248,0.0,3.0,63,0.00,,,0.00,VWS V14.01,2013-02-01 15:35:00,
2013-02-01 09:40:00,10.5,0.1,30.53,SW,232,1.0,5.0,62,0.00,,,0.00,VWS V14.01,2013-02-01 15:40:00,
2013-02-01 09:45:00,10.8,0.7,30.53,South,170,2.0,5.0,63,0.00,,,0.00,VWS V14.01,2013-02-01 15:45:00,
2013-02-01 09:50:00,11.4,0.9,30.53,SW,225,3.0,5.0,62,0.00,,,0.00,VWS V14.01,2013-02-01 15:50:00,
2013-02-01 09:55:00,11.5,0.7,30.53,West,263,1.0,5.0,61,0.00,,,0.00,VWS V14.01,2013-02-01 15:55:00,
2013-02-01 10:00:00,11.9,1.0,30.53,SSW,206,3.0,4.0,61,0.00,,,0.00,VWS V14.01,2013-02-01 16:00:00,
2013-02-01 10:05:00,12.5,0.9,30.53,SW,225,0.0,6.0,59,0.00,,,0.00,VWS V14.01,2013-02-01 16:05:00,
2013-02-01 10:10:00,12.7,0.7,30.54,SW,229,1.0,6.0,58,0.00,,,0.00,VWS V14.01,2013-02-01 16:10:00,
2013-02-01 10:15:00,12.7,0.4,30.53,SW,235,0.0,6.0,57,0.00,,,0.00,VWS V14.01,2013-02-01 16:15:00,
2013-02-01 10:21:00,12.8,0.4,30.53,West,279,2.0,6.0,57,0.00,,,0.00,VWS V14.01,2013-02-01 16:21:00,
2013-02-01 10:26:00,13.2,1.6,30.53,SSW,209,2.0,10.0,59,0.00,,,0.00,VWS V14.01,2013-02-01 16:26:00,
2013-02-01 10:30:00,13.6,1.6,30.53,SE,138,0.0,10.0,58,0.00,,,0.00,VWS V14.01,2013-02-01 16:30:00,
2013-02-01 10:31:00,13.7,1.7,30.53,ESE,103,4.0,4.0,58,0.00,,,0.00,VWS V14.01,2013-02-01 16:31:00,
2013-02-01 10:36:00,14.3,1.9,30.53,South,183,5.0,5.0,57,0.00,,,0.00,VWS V14.01,2013-02-01 16:36:00,
2013-02-01 10:41:00,14.9,2.0,30.53,WSW,244,4.0,5.0,56,0.00,,,0.00,VWS V14.01,2013-02-01 16:41:00,
2013-02-01 10:46:00,14.8,1.6,30.53,SSE,153,1.0,6.0,55,0.00,,,0.00,VWS V14.01,2013-02-01 16:46:00,
2013-02-01 10:51:00,14.8,1.6,30.53,West,267,1.0,6.0,55,0.00,,,0.00,VWS V14.01,2013-02-01 16:51:00,
2013-02-01 10:56:00,15.4,2.9,30.53,SW,214,5.0,7.0,57,0.00,,,0.00,VWS V14.01,2013-02-01 16:56:00,
2013-02-01 11:00:00,15.6,1.9,30.53,SW,223,6.0,11.0,54,0.00,,,0.00,VWS V14.01,2013-02-01 17:00:00,
2013-02-01 11:01:00,15.6,1.9,30.53,SW,216,4.0,7.0,54,0.00,,,0.00,VWS V14.01,2013-02-01 17:01:00,
2013-02-01 11:06:00,15.4,1.3,30.53,West,272,6.0,9.0,53,0.00,,,0.00,VWS V14.01,2013-02-01 17:06:00,
2013-02-01 11:11:00,15.4,1.7,30.53,West,266,2.0,9.0,54,0.00,,,0.00,VWS V14.01,2013-02-01 17:11:00,
2013-02-01 11:16:00,15.8,2.9,30.52,West,267,1.0,9.0,56,0.00,,,0.00,VWS V14.01,2013-02-01 17:16:00,
2013-02-01 11:21:00,16.6,3.7,30.52,SW,218,4.0,9.0,56,0.00,,,0.00,VWS V14.01,2013-02-01 17:21:00,
2013-02-01 11:26:00,16.7,2.5,30.52,West,274,6.0,12.0,53,0.00,,,0.00,VWS V14.01,2013-02-01 17:26:00,
2013-02-01 11:30:00,16.6,2.5,30.52,West,259,3.0,12.0,53,0.00,,,0.00,VWS V14.01,2013-02-01 17:30:00,
2013-02-01 11:31:00,16.6,2.5,30.52,West,259,1.0,3.0,53,0.00,,,0.00,VWS V14.01,2013-02-01 17:31:00,
2013-02-01 11:36:00,16.9,3.5,30.52,WSW,244,5.0,11.0,55,0.00,,,0.00,VWS V14.01,2013-02-01 17:36:00,
2013-02-01 11:41:00,17.2,3.0,30.52,West,281,6.0,11.0,53,0.00,,,0.00,VWS V14.01,2013-02-01 17:41:00,
2013-02-01 11:46:00,17.2,3.0,30.51,West,273,7.0,13.0,53,0.00,,,0.00,VWS V14.01,2013-02-01 17:46:00,
2013-02-01 11:51:00,17.3,3.1,30.51,SW,236,5.0,13.0,53,0.00,,,0.00,VWS V14.01,2013-02-01 17:51:00,
2013-02-01 11:56:00,17.7,3.1,30.50,WSW,245,2.0,13.0,52,0.00,,,0.00,VWS V14.01,2013-02-01 17:56:00,
2013-02-01 12:00:00,17.9,3.3,30.50,WSW,250,5.0,13.0,52,0.00,,,0.00,VWS V14.01,2013-02-01 18:00:00,
2013-02-01 12:01:00,17.9,2.4,30.50,WSW,242,4.0,5.0,50,0.00,,,0.00,VWS V14.01,2013-02-01 18:01:00,
2013-02-01 12:06:00,18.0,2.9,30.49,WSW,238,4.0,6.0,51,0.00,,,0.00,VWS V14.01,2013-02-01 18:06:00,
2013-02-01 12:11:00,18.4,3.7,30.49,SW,232,3.0,6.0,52,0.00,,,0.00,VWS V14.01,2013-02-01 18:11:00,
2013-02-01 12:16:00,18.9,3.3,30.49,West,265,4.0,6.0,50,0.00,,,0.00,VWS V14.01,2013-02-01 18:16:00,
2013-02-01 12:21:00,19.3,4.6,30.48,SSW,209,3.0,6.0,52,0.00,,,0.00,VWS V14.01,2013-02-01 18:21:00,
2013-02-01 12:26:00,19.8,3.7,30.48,WSW,253,3.0,6.0,49,0.00,,,0.00,VWS V14.01,2013-02-01 18:26:00,
2013-02-01 12:30:00,19.9,3.8,30.49,West,264,5.0,10.0,49,0.00,,,0.00,VWS V14.01,2013-02-01 18:30:00,
2013-02-01 12:31:00,20.0,4.8,30.48,WSW,252,4.0,6.0,51,0.00,,,0.00,VWS V14.01,2013-02-01 18:31:00,
2013-02-01 12:36:00,20.0,3.5,30.48,West,263,5.0,12.0,48,0.00,,,0.00,VWS V14.01,2013-02-01 18:36:00,
2013-02-01 12:41:00,20.0,3.5,30.48,West,279,4.0,12.0,48,0.00,,,0.00,VWS V14.01,2013-02-01 18:41:00,
2013-02-01 12:46:00,19.8,3.7,30.48,WNW,284,2.0,12.0,49,0.00,,,0.00,VWS V14.01,2013-02-01 18:46:00,
2013-02-01 12:51:00,20.5,4.8,30.47,SW,227,11.0,12.0,50,0.00,,,0.00,VWS V14.01,2013-02-01 18:51:00,
2013-02-01 12:56:00,20.6,4.5,30.47,SW,223,4.0,12.0,49,0.00,,,0.00,VWS V14.01,2013-02-01 18:56:00,
2013-02-01 13:00:00,20.9,4.3,30.47,West,263,3.0,12.0,48,0.00,,,0.00,VWS V14.01,2013-02-01 19:00:00,
2013-02-01 13:01:00,20.8,3.8,30.47,West,263,1.0,3.0,47,0.00,,,0.00,VWS V14.01,2013-02-01 19:01:00,
2013-02-01 13:06:00,21.1,4.9,30.46,SW,233,3.0,5.0,49,0.00,,,0.00,VWS V14.01,2013-02-01 19:06:00,
2013-02-01 13:11:00,21.8,5.6,30.46,SSW,194,2.0,5.0,49,0.00,,,0.00,VWS V14.01,2013-02-01 19:11:00,
2013-02-01 13:16:00,22.3,5.6,30.45,SW,236,4.0,8.0,48,0.00,,,0.00,VWS V14.01,2013-02-01 19:16:00,
2013-02-01 13:21:00,22.7,6.4,30.45,SSW,202,5.0,8.0,49,0.00,,,0.00,VWS V14.01,2013-02-01 19:21:00,
2013-02-01 13:26:00,23.1,5.9,30.45,South,188,7.0,8.0,47,0.00,,,0.00,VWS V14.01,2013-02-01 19:26:00,
2013-02-01 13:30:00,23.2,6.0,30.44,South,178,0.0,8.0,47,0.00,,,0.00,VWS V14.01,2013-02-01 19:30:00,
2013-02-01 13:31:00,23.3,6.1,30.44,South,180,0.0,1.0,47,0.00,,,0.00,VWS V14.01,2013-02-01 19:31:00,
2013-02-01 13:36:00,23.3,5.6,30.44,WSW,248,3.0,7.0,46,0.00,,,0.00,VWS V14.01,2013-02-01 19:36:00,
2013-02-01 13:41:00,22.9,5.7,30.43,WSW,238,4.0,7.0,47,0.00,,,0.00,VWS V14.01,2013-02-01 19:41:00,
2013-02-01 13:46:00,22.4,5.2,30.43,SSW,205,2.0,8.0,47,0.00,,,0.00,VWS V14.01,2013-02-01 19:46:00,
2013-02-01 13:51:00,22.3,5.6,30.43,SSW,203,4.0,8.0,48,0.00,,,0.00,VWS V14.01,2013-02-01 19:51:00,
2013-02-01 13:56:00,22.4,5.7,30.42,WSW,251,3.0,8.0,48,0.00,,,0.00,VWS V14.01,2013-02-01 19:56:00,
2013-02-01 14:00:00,22.6,5.9,30.42,South,182,1.0,8.0,48,0.00,,,0.00,VWS V14.01,2013-02-01 20:00:00,
2013-02-01 14:01:00,22.5,5.8,30.42,SSW,195,3.0,6.0,48,0.00,,,0.00,VWS V14.01,2013-02-01 20:01:00,
2013-02-01 14:06:00,22.5,5.3,30.42,SSW,209,1.0,6.0,47,0.00,,,0.00,VWS V14.01,2013-02-01 20:06:00,
2013-02-01 14:11:00,22.5,5.3,30.43,SSW,209,1.0,6.0,47,0.00,,,0.00,VWS V14.01,2013-02-01 20:11:00,
2013-02-01 14:16:00,22.6,5.9,30.42,SW,216,1.0,6.0,48,0.00,,,0.00,VWS V14.01,2013-02-01 20:16:00,
2013-02-01 14:21:00,22.6,5.9,30.43,West,263,6.0,8.0,48,0.00,,,0.00,VWS V14.01,2013-02-01 20:21:00,
2013-02-01 14:26:00,22.6,5.9,30.42,WSW,252,1.0,8.0,48,0.00,,,0.00,VWS V14.01,2013-02-01 20:26:00,
2013-02-01 14:30:00,22.5,5.3,30.42,West,271,7.0,8.0,47,0.00,,,0.00,VWS V14.01,2013-02-01 20:30:00,
2013-02-01 14:31:00,22.5,5.8,30.42,WSW,254,5.0,7.0,48,0.00,,,0.00,VWS V14.01,2013-02-01 20:31:00,
2013-02-01 14:36:00,22.7,6.4,30.42,SSW,198,2.0,7.0,49,0.00,,,0.00,VWS V14.01,2013-02-01 20:36:00,
2013-02-01 14:41:00,22.9,6.2,30.42,WSW,244,3.0,8.0,48,0.00,,,0.00,VWS V14.01,2013-02-01 20:41:00,
2013-02-01 14:46:00,23.1,6.3,30.41,WSW,248,4.0,8.0,48,0.00,,,0.00,VWS V14.01,2013-02-01 20:46:00,
2013-02-01 14:52:00,23.2,6.4,30.41,SSW,205,5.0,8.0,48,0.00,,,0.00,VWS V14.01,2013-02-01 20:52:00,
2013-02-01 14:57:00,23.6,6.8,30.41,SW,232,2.0,8.0,48,0.00,,,0.00,VWS V14.01,2013-02-01 20:57:00,
2013-02-01 15:00:00,23.6,6.8,30.40,WSW,250,0.0,8.0,48,0.00,,,0.00,VWS V14.01,2013-02-01 21:00:00,
2013-02-01 15:02:00,23.7,6.9,30.40,WSW,250,0.0,0.0,48,0.00,,,0.00,VWS V14.01,2013-02-01 21:02:00,
2013-02-01 15:07:00,24.3,7.0,30.40,WSW,238,3.0,6.0,47,0.00,,,0.00,VWS V14.01,2013-02-01 21:07:00,
2013-02-01 15:12:00,24.2,6.9,30.41,SW,226,3.0,6.0,47,0.00,,,0.00,VWS V14.01,2013-02-01 21:12:00,
2013-02-01 15:17:00,24.2,6.4,30.41,West,277,5.0,7.0,46,0.00,,,0.00,VWS V14.01,2013-02-01 21:17:00,
2013-02-01 15:22:00,23.8,6.5,30.40,SW,236,5.0,9.0,47,0.00,,,0.00,VWS V14.01,2013-02-01 21:22:00,
2013-02-01 15:27:00,23.7,6.4,30.41,West,269,3.0,9.0,47,0.00,,,0.00,VWS V14.01,2013-02-01 21:27:00,
2013-02-01 15:30:00,23.8,6.5,30.41,WSW,254,2.0,9.0,47,0.00,,,0.00,VWS V14.01,2013-02-01 21:30:00,
2013-02-01 15:32:00,23.8,6.5,30.41,WSW,253,3.0,5.0,47,0.00,,,0.00,VWS V14.01,2013-02-01 21:32:00,
2013-02-01 15:37:00,24.1,6.3,30.41,SW,234,2.0,8.0,46,0.00,,,0.00,VWS V14.01,2013-02-01 21:37:00,
2013-02-01 15:42:00,24.7,6.9,30.40,SSW,206,3.0,8.0,46,0.00,,,0.00,VWS V14.01,2013-02-01 21:42:00,
2013-02-01 15:47:00,25.2,6.8,30.40,ESE,123,2.0,8.0,45,0.00,,,0.00,VWS V14.01,2013-02-01 21:47:00,
2013-02-01 15:52:00,25.6,7.7,30.40,SSE,156,1.0,8.0,46,0.00,,,0.00,VWS V14.01,2013-02-01 21:52:00,
2013-02-01 15:57:00,25.8,6.9,30.39,WSW,240,3.0,8.0,44,0.00,,,0.00,VWS V14.01,2013-02-01 21:57:00,
2013-02-01 16:00:00,25.6,6.7,30.39,WSW,241,3.0,8.0,44,0.00,,,0.00,VWS V14.01,2013-02-01 22:00:00,
2013-02-01 16:02:00,25.5,7.1,30.39,WSW,241,5.0,5.0,45,0.00,,,0.00,VWS V14.01,2013-02-01 22:02:00,
2013-02-01 16:07:00,25.3,6.4,30.38,WSW,241,0.0,5.0,44,0.00,,,0.00,VWS V14.01,2013-02-01 22:07:00,
2013-02-01 16:12:00,25.4,6.5,30.38,SSW,211,0.0,6.0,44,0.00,,,0.00,VWS V14.01,2013-02-01 22:12:00,
2013-02-01 16:17:00,25.4,6.5,30.38,WSW,249,3.0,7.0,44,0.00,,,0.00,VWS V14.01,2013-02-01 22:17:00,
2013-02-01 16:22:00,25.3,6.4,30.39,South,184,7.0,7.0,44,0.00,,,0.00,VWS V14.01,2013-02-01 22:22:00,
2013-02-01 16:27:00,25.2,6.8,30.38,WSW,255,2.0,8.0,45,0.00,,,0.00,VWS V14.01,2013-02-01 22:27:00,
2013-02-01 16:30:00,25.1,6.8,30.38,WSW,256,3.0,10.0,45,0.00,,,0.00,VWS V14.01,2013-02-01 22:30:00,
2013-02-01 16:32:00,25.1,6.8,30.38,WSW,251,4.0,5.0,45,0.00,,,0.00,VWS V14.01,2013-02-01 22:32:00,
2013-02-01 16:37:00,25.2,7.3,30.38,WSW,238,3.0,6.0,46,0.00,,,0.00,VWS V14.01,2013-02-01 22:37:00,
2013-02-01 16:42:00,25.2,7.3,30.38,WSW,249,3.0,6.0,46,0.00,,,0.00,VWS V14.01,2013-02-01 22:42:00,
2013-02-01 16:47:00,25.2,6.8,30.38,West,259,2.0,10.0,45,0.00,,,0.00,VWS V14.01,2013-02-01 22:47:00,
2013-02-01 16:52:00,25.1,6.8,30.38,SW,232,0.0,10.0,45,0.00,,,0.00,VWS V14.01,2013-02-01 22:52:00,
2013-02-01 16:57:00,25.2,7.3,30.37,SW,234,2.0,10.0,46,0.00,,,0.00,VWS V14.01,2013-02-01 22:57:00,
2013-02-01 17:00:00,25.2,6.8,30.37,SW,235,0.0,10.0,45,0.00,,,0.00,VWS V14.01,2013-02-01 23:00:00,
2013-02-01 17:02:00,25.2,7.3,30.37,SW,235,0.0,1.0,46,0.00,,,0.00,VWS V14.01,2013-02-01 23:02:00,
2013-02-01 17:07:00,25.3,7.4,30.36,SW,231,0.0,2.0,46,0.00,,,0.00,VWS V14.01,2013-02-01 23:07:00,
2013-02-01 17:12:00,25.3,7.4,30.36,SSW,207,2.0,4.0,46,0.00,,,0.00,VWS V14.01,2013-02-01 23:12:00,
2013-02-01 17:17:00,25.3,6.9,30.36,South,186,1.0,4.0,45,0.00,,,0.00,VWS V14.01,2013-02-01 23:17:00,
2013-02-01 17:22:00,25.3,7.4,30.36,South,191,1.0,4.0,46,0.00,,,0.00,VWS V14.01,2013-02-01 23:22:00,
2013-02-01 17:27:00,25.3,7.4,30.36,SSW,197,2.0,4.0,46,0.00,,,0.00,VWS V14.01,2013-02-01 23:27:00,
2013-02-01 17:30:00,25.2,6.8,30.36,South,176,0.0,5.0,45,0.00,,,0.00,VWS V14.01,2013-02-01 23:30:00,
2013-02-01 17:32:00,25.2,6.8,30.36,South,178,0.0,1.0,45,0.00,,,0.00,VWS V14.01,2013-02-01 23:32:00,
2013-02-01 17:37:00,25.2,7.3,30.36,South,186,1.0,4.0,46,0.00,,,0.00,VWS V14.01,2013-02-01 23:37:00,
2013-02-01 17:42:00,25.2,7.8,30.35,South,186,0.0,4.0,47,0.00,,,0.00,VWS V14.01,2013-02-01 23:42:00,
2013-02-01 17:47:00,25.2,7.8,30.36,South,186,0.0,4.0,47,0.00,,,0.00,VWS V14.01,2013-02-01 23:47:00,
2013-02-01 17:52:00,25.3,7.9,30.36,South,188,0.0,4.0,47,0.00,,,0.00,VWS V14.01,2013-02-01 23:52:00,
2013-02-01 17:57:00,25.3,8.4,30.35,SSW,194,0.0,4.0,48,0.00,,,0.00,VWS V14.01,2013-02-01 23:57:00,
2013-02-01 18:00:00,25.3,8.4,30.35,SSW,194,0.0,4.0,48,0.00,,,0.00,VWS V14.01,2013-02-02 00:00:00,
2013-02-01 18:02:00,25.3,8.4,30.35,SSW,194,0.0,1.0,48,0.00,,,0.00,VWS V14.01,2013-02-02 00:02:00,
2013-02-01 18:07:00,25.4,8.0,30.35,SSW,197,2.0,4.0,47,0.00,,,0.00,VWS V14.01,2013-02-02 00:07:00,
2013-02-01 18:12:00,25.4,8.5,30.35,SSW,197,0.0,4.0,48,0.00,,,0.00,VWS V14.01,2013-02-02 00:12:00,
2013-02-01 18:17:00,25.4,8.5,30.35,SSW,197,3.0,4.0,48,0.00,,,0.00,VWS V14.01,2013-02-02 00:17:00,
2013-02-01 18:22:00,25.5,8.6,30.35,SSW,198,0.0,4.0,48,0.00,,,0.00,VWS V14.01,2013-02-02 00:22:00,
2013-02-01 18:27:00,25.5,9.0,30.34,SSW,198,2.0,4.0,49,0.00,,,0.00,VWS V14.01,2013-02-02 00:27:00,
2013-02-01 18:30:00,25.5,8.6,30.34,SSW,196,0.0,5.0,48,0.00,,,0.00,VWS V14.01,2013-02-02 00:30:00,
2013-02-01 18:32:00,25.5,8.6,30.34,SSW,196,0.0,1.0,48,0.00,,,0.00,VWS V14.01,2013-02-02 00:32:00,
2013-02-01 18:37:00,25.6,8.6,30.34,SSW,196,0.0,3.0,48,0.00,,,0.00,VWS V14.01,2013-02-02 00:37:00,
2013-02-01 18:42:00,25.6,8.6,30.33,SSW,196,0.0,3.0,48,0.00,,,0.00,VWS V14.01,2013-02-02 00:42:00,
2013-02-01 18:47:00,25.6,8.6,30.33,SSW,196,0.0,3.0,48,0.00,,,0.00,VWS V14.01,2013-02-02 00:47:00,
2013-02-01 18:52:00,25.6,8.6,30.33,SSW,195,1.0,3.0,48,0.00,,,0.00,VWS V14.01,2013-02-02 00:52:00,
2013-02-01 18:57:00,25.6,8.6,30.33,SSW,194,0.0,3.0,48,0.00,,,0.00,VWS V14.01,2013-02-02 00:57:00,
2013-02-01 19:00:00,25.6,8.6,30.33,SSW,194,0.0,3.0,48,0.00,,,0.00,VWS V14.01,2013-02-02 01:00:00,
2013-02-01 19:02:00,25.7,8.3,30.33,SSW,194,0.0,1.0,47,0.00,,,0.00,VWS V14.01,2013-02-02 01:02:00,
2013-02-01 19:07:00,25.6,8.2,30.33,ESE,114,0.0,4.0,47,0.00,,,0.00,VWS V14.01,2013-02-02 01:07:00,
2013-02-01 19:12:00,25.7,8.7,30.33,ESE,117,2.0,4.0,48,0.00,,,0.00,VWS V14.01,2013-02-02 01:12:00,
2013-02-01 19:18:00,25.7,8.7,30.33,ESE,118,1.0,4.0,48,0.00,,,0.00,VWS V14.01,2013-02-02 01:18:00,
2013-02-01 19:23:00,25.7,8.7,30.33,ESE,118,0.0,4.0,48,0.00,,,0.00,VWS V14.01,2013-02-02 01:23:00,
2013-02-01 19:28:00,25.7,8.7,30.33,ESE,119,0.0,4.0,48,0.00,,,0.00,VWS V14.01,2013-02-02 01:28:00,
2013-02-01 19:30:00,25.7,8.7,30.33,SE,131,2.0,4.0,48,0.00,,,0.00,VWS V14.01,2013-02-02 01:30:00,
2013-02-01 19:33:00,25.8,8.8,30.33,SE,142,0.0,5.0,48,0.00,,,0.00,VWS V14.01,2013-02-02 01:33:00,
2013-02-01 19:38:00,25.8,8.8,30.33,SE,143,0.0,5.0,48,0.00,,,0.00,VWS V14.01,2013-02-02 01:38:00,
2013-02-01 19:43:00,25.8,8.8,30.32,SSE,150,0.0,5.0,48,0.00,,,0.00,VWS V14.01,2013-02-02 01:43:00,
2013-02-01 19:48:00,25.9,9.4,30.32,SW,214,2.0,5.0,49,0.00,,,0.00,VWS V14.01,2013-02-02 01:48:00,
2013-02-01 19:53:00,25.9,10.3,30.31,SSW,198,0.0,5.0,51,0.00,,,0.00,VWS V14.01,2013-02-02 01:53:00,
2013-02-01 19:58:00,26.0,12.1,30.31,WSW,256,1.0,6.0,55,0.00,,,0.00,VWS V14.01,2013-02-02 01:58:00,
2013-02-01 20:00:00,25.9,12.4,30.31,WSW,255,1.0,6.0,56,0.00,,,0.00,VWS V14.01,2013-02-02 02:00:00,
2013-02-01 20:03:00,25.9,12.8,30.31,SW,230,0.0,6.0,57,0.00,,,0.00,VWS V14.01,2013-02-02 02:03:00,
2013-02-01 20:08:00,25.8,13.1,30.31,SSE,162,0.0,6.0,58,0.00,,,0.00,VWS V14.01,2013-02-02 02:08:00,
2013-02-01 20:13:00,25.7,13.4,30.31,WSW,243,0.0,6.0,59,0.00,,,0.00,VWS V14.01,2013-02-02 02:13:00,
2013-02-01 20:18:00,25.7,13.8,30.31,WSW,242,4.0,6.0,60,0.00,,,0.00,VWS V14.01,2013-02-02 02:18:00,
2013-02-01 20:23:00,25.7,13.8,30.31,WSW,246,3.0,6.0,60,0.00,,,0.00,VWS V14.01,2013-02-02 02:23:00,
2013-02-01 20:28:00,25.6,14.4,30.31,SW,227,4.0,6.0,62,0.00,,,0.00,VWS V14.01,2013-02-02 02:28:00,
2013-02-01 20:30:00,25.6,14.4,30.31,SSW,211,2.0,6.0,62,0.00,,,0.00,VWS V14.01,2013-02-02 02:30:00,
2013-02-01 20:33:00,25.6,14.8,30.30,SW,214,1.0,4.0,63,0.00,,,0.00,VWS V14.01,2013-02-02 02:33:00,
2013-02-01 20:38:00,25.7,15.2,30.30,East,97,0.0,8.0,64,0.00,,,0.00,VWS V14.01,2013-02-02 02:38:00,
2013-02-01 20:43:00,25.6,15.5,30.30,West,259,3.0,8.0,65,0.00,,,0.00,VWS V14.01,2013-02-02 02:43:00,
2013-02-01 20:48:00,25.6,15.5,30.30,South,180,0.0,8.0,65,0.00,,,0.00,VWS V14.01,2013-02-02 02:48:00,
2013-02-01 20:53:00,25.5,16.1,30.29,South,186,1.0,8.0,67,0.00,,,0.00,VWS V14.01,2013-02-02 02:53:00,
2013-02-01 20:58:00,25.6,16.2,30.29,South,188,1.0,8.0,67,0.00,,,0.00,VWS V14.01,2013-02-02 02:58:00,
2013-02-01 21:00:00,25.6,16.2,30.29,South,171,0.0,8.0,67,0.00,,,0.00,VWS V14.01,2013-02-02 03:00:00,
2013-02-01 21:03:00,25.6,16.2,30.29,South,180,0.0,4.0,67,0.00,,,0.00,VWS V14.01,2013-02-02 03:03:00,
2013-02-01 21:08:00,25.7,16.3,30.28,SSW,209,0.0,4.0,67,0.00,,,0.00,VWS V14.01,2013-02-02 03:08:00,
2013-02-01 21:13:00,25.7,15.9,30.28,SSE,149,0.0,4.0,66,0.00,,,0.00,VWS V14.01,2013-02-02 03:13:00,
2013-02-01 21:18:00,25.8,16.0,30.28,South,189,0.0,5.0,66,0.00,,,0.00,VWS V14.01,2013-02-02 03:18:00,
2013-02-01 21:23:00,25.9,15.8,30.28,South,189,0.0,5.0,65,0.00,,,0.00,VWS V14.01,2013-02-02 03:23:00,
2013-02-01 21:28:00,26.1,15.6,30.27,SSW,200,0.0,6.0,64,0.00,,,0.00,VWS V14.01,2013-02-02 03:28:00,
2013-02-01 21:30:00,26.1,15.2,30.27,SE,134,0.0,6.0,63,0.00,,,0.00,VWS V14.01,2013-02-02 03:30:00,
2013-02-01 21:33:00,26.2,15.3,30.27,ESE,118,0.0,2.0,63,0.00,,,0.00,VWS V14.01,2013-02-02 03:33:00,
2013-02-01 21:38:00,26.3,15.1,30.27,South,189,1.0,4.0,62,0.00,,,0.00,VWS V14.01,2013-02-02 03:38:00,
2013-02-01 21:43:00,26.5,15.3,30.26,SSW,213,2.0,4.0,62,0.00,,,0.00,VWS V14.01,2013-02-02 03:43:00,
2013-02-01 21:48:00,26.5,14.9,30.26,SSE,161,0.0,5.0,61,0.00,,,0.00,VWS V14.01,2013-02-02 03:48:00,
2013-02-01 21:53:00,26.6,14.2,30.25,SSE,165,0.0,5.0,59,0.00,,,0.00,VWS V14.01,2013-02-02 03:53:00,
2013-02-01 21:58:00,26.7,13.9,30.25,SE,138,1.0,6.0,58,0.00,,,0.00,VWS V14.01,2013-02-02 03:58:00,
2013-02-01 22:00:00,26.8,14.0,30.25,South,191,1.0,6.0,58,0.00,,,0.00,VWS V14.01,2013-02-02 04:00:00,
2013-02-01 22:03:00,26.9,13.7,30.25,South,178,0.0,5.0,57,0.00,,,0.00,VWS V14.01,2013-02-02 04:03:00,
2013-02-01 22:08:00,27.0,13.4,30.25,SSW,205,1.0,6.0,56,0.00,,,0.00,VWS V14.01,2013-02-02 04:08:00,
2013-02-01 22:13:00,27.1,13.1,30.24,South,191,3.0,7.0,55,0.00,,,0.00,VWS V14.01,2013-02-02 04:13:00,
2013-02-01 22:18:00,27.2,12.8,30.24,SSE,156,0.0,7.0,54,0.00,,,0.00,VWS V14.01,2013-02-02 04:18:00,
2013-02-01 22:23:00,27.3,12.4,30.24,South,171,1.0,7.0,53,0.00,,,0.00,VWS V14.01,2013-02-02 04:23:00,
2013-02-01 22:28:00,27.5,13.9,30.24,SSW,212,3.0,7.0,56,0.00,,,0.00,VWS V14.01,2013-02-02 04:28:00,
2013-02-01 22:30:00,27.5,11.8,30.24,SSW,200,1.0,7.0,51,0.00,,,0.00,VWS V14.01,2013-02-02 04:30:00,
2013-02-01 22:33:00,27.6,11.9,30.24,South,176,0.0,4.0,51,0.00,,,0.00,VWS V14.01,2013-02-02 04:33:00,
2013-02-01 22:38:00,27.7,11.9,30.24,South,180,0.0,4.0,51,0.00,,,0.00,VWS V14.01,2013-02-02 04:38:00,
2013-02-01 22:43:00,27.8,11.1,30.24,SW,217,2.0,6.0,49,0.00,,,0.00,VWS V14.01,2013-02-02 04:43:00,
2013-02-01 22:48:00,28.0,11.8,30.24,SSW,213,3.0,6.0,50,0.00,,,0.00,VWS V14.01,2013-02-02 04:48:00,
2013-02-01 22:53:00,28.1,11.4,30.24,WSW,239,2.0,10.0,49,0.00,,,0.00,VWS V14.01,2013-02-02 04:53:00,
2013-02-01 22:58:00,28.3,11.6,30.25,WSW,246,4.0,10.0,49,0.00,,,0.00,VWS V14.01,2013-02-02 04:58:00,
2013-02-01 23:00:00,28.4,11.2,30.25,WSW,245,3.0,10.0,48,0.00,,,0.00,VWS V14.01,2013-02-02 05:00:00,
2013-02-01 23:03:00,28.5,11.3,30.25,WSW,240,2.0,3.0,48,0.00,,,0.00,VWS V14.01,2013-02-02 05:03:00,
2013-02-01 23:08:00,28.7,11.5,30.26,WSW,239,4.0,7.0,48,0.00,,,0.00,VWS V14.01,2013-02-02 05:08:00,
2013-02-01 23:13:00,28.8,11.6,30.25,WSW,238,0.0,7.0,48,0.00,,,0.00,VWS V14.01,2013-02-02 05:13:00,
2013-02-01 23:18:00,28.9,11.7,30.24,SSW,201,0.0,7.0,48,0.00,,,0.00,VWS V14.01,2013-02-02 05:18:00,
2013-02-01 23:23:00,28.9,11.7,30.24,SSW,213,3.0,7.0,48,0.00,,,0.00,VWS V14.01,2013-02-02 05:23:00,
2013-02-01 23:28:00,29.1,11.9,30.24,SW,220,1.0,7.0,48,0.00,,,0.00,VWS V14.01,2013-02-02 05:28:00,
2013-02-01 23:30:00,29.0,11.8,30.24,SW,232,0.0,7.0,48,0.00,,,0.00,VWS V14.01,2013-02-02 05:30:00,
2013-02-01 23:33:00,29.1,11.9,30.24,SSW,205,3.0,6.0,48,0.00,,,0.00,VWS V14.01,2013-02-02 05:33:00,
2013-02-01 23:38:00,29.2,12.0,30.24,SSW,202,0.0,7.0,48,0.00,,,0.00,VWS V14.01,2013-02-02 05:38:00,
2013-02-01 23:44:00,29.2,12.0,30.24,WSW,241,3.0,7.0,48,0.00,,,0.00,VWS V14.01,2013-02-02 05:44:00,
2013-02-01 23:49:00,29.3,12.1,30.24,WSW,248,0.0,7.0,48,0.00,,,0.00,VWS V14.01,2013-02-02 05:49:00,
2013-02-01 23:54:00,29.3,12.1,30.24,SW,232,0.0,7.0,48,0.00,,,0.00,VWS V14.01,2013-02-02 05:54:00,
2013-02-01 23:59:00,29.3,12.1,30.24,WSW,240,0.0,7.0,48,0.00,,,0.00,VWS V14.01,2013-02-02 05:59:00,